• In Deutschland
  • Länderverzeichnis
  • Für 7 Tage
  • Wassertemperatur
  • Satellitenkarten
  • Wetterkarte
  • Widgets
  • user-avatar
    Anmelden

    Stündliche Wetter Armak

    Heute, 21 September, Freitag

    Zeit Temperatur Niederschläge Wind Luftdruck Luftfeuchtigkeit
    00:00 0°C° 0 mm 5 m/S 686 mmHg 80%
    01:00 -1°C° 0 mm 4 m/S 686 mmHg 82%
    02:00 -1°C° 0 mm 4 m/S 686 mmHg 82%
    03:00 -1°C° 0 mm 4 m/S 686 mmHg 83%
    04:00 -1°C° 0 mm 4 m/S 686 mmHg 83%
    05:00 -1°C° 0 mm 4 m/S 687 mmHg 82%
    06:00 -1°C° 0 mm 4 m/S 687 mmHg 81%
    07:00 +1°C° 0 mm 3 m/S 687 mmHg 79%
    08:00 +1°C° 0 mm 4 m/S 687 mmHg 74%
    09:00 +4°C° 0 mm 4 m/S 687 mmHg 68%
    10:00 +6°C° 0 mm 5 m/S 688 mmHg 63%
    11:00 +7°C° 0 mm 5 m/S 687 mmHg 59%
    12:00 +8°C° 0 mm 4 m/S 687 mmHg 56%
    13:00 +10°C° 0 mm 4 m/S 687 mmHg 53%
    14:00 +8°C° 0 mm 4 m/S 687 mmHg 54%
    15:00 +8°C° 0 mm 4 m/S 687 mmHg 55%
    16:00 +9°C° 0 mm 3 m/S 687 mmHg 56%
    17:00 +7°C° 0 mm 3 m/S 687 mmHg 66%
    18:00 +4°C° 0 mm 2 m/S 687 mmHg 75%
    19:00 +3°C° 0 mm 1 m/S 687 mmHg 84%
    20:00 +3°C° 0 mm 1 m/S 687 mmHg 86%
    21:00 +2°C° 0 mm 1 m/S 687 mmHg 88%
    22:00 +2°C° 0 mm 1 m/S 688 mmHg 89%
    23:00 +1°C° 0 mm 1 m/S 688 mmHg 90%

    Morgen, 22 September, Samstag

    Zeit Temperatur Niederschläge Wind Luftdruck Luftfeuchtigkeit
    00:00 -1°C° 0 mm 2 m/S 688 mmHg 91%
    01:00 -1°C° 0 mm 2 m/S 688 mmHg 92%
    02:00 +1°C° 0 mm 1 m/S 689 mmHg 92%
    03:00 +1°C° 0 mm 1 m/S 689 mmHg 92%
    04:00 0°C° 0 mm 1 m/S 689 mmHg 92%
    05:00 +1°C° 0 mm 1 m/S 689 mmHg 88%
    06:00 +2°C° 0 mm 1 m/S 690 mmHg 85%
    07:00 +3°C° 0 mm 1 m/S 690 mmHg 81%
    08:00 +6°C° 0 mm 1 m/S 690 mmHg 71%
    09:00 +8°C° 0 mm 1 m/S 691 mmHg 61%
    10:00 +11°C° 0 mm 1 m/S 691 mmHg 51%
    11:00 +12°C° 0 mm 1 m/S 691 mmHg 47%
    12:00 +13°C° 0 mm 1 m/S 690 mmHg 43%
    13:00 +15°C° 0 mm 2 m/S 690 mmHg 39%
    14:00 +15°C° 0 mm 1 m/S 690 mmHg 41%
    15:00 +15°C° 0 mm 1 m/S 689 mmHg 42%
    16:00 +14°C° 0 mm 1 m/S 689 mmHg 44%
    17:00 +11°C° 0 mm 1 m/S 688 mmHg 55%
    18:00 +8°C° 0 mm 1 m/S 688 mmHg 67%
    19:00 +5°C° 0 mm 1 m/S 688 mmHg 78%
    20:00 +5°C° 0 mm 1 m/S 688 mmHg 80%
    21:00 +4°C° 0 mm 1 m/S 688 mmHg 82%
    22:00 +2°C° 0 mm 0 m/S 688 mmHg 84%
    23:00 +2°C° 0 mm 0 m/S 688 mmHg 84%

    übermorgen, 23 September, Sonntag

    Zeit Temperatur Niederschläge Wind Luftdruck Luftfeuchtigkeit
    00:00 +2°C° 0 mm 0 m/S 688 mmHg 85%
    01:00 +2°C° 0 mm 1 m/S 688 mmHg 86%
    02:00 +2°C° 0 mm 1 m/S 688 mmHg 86%
    03:00 +2°C° 0 mm 1 m/S 688 mmHg 86%
    04:00 +1°C° 0 mm 1 m/S 688 mmHg 87%
    05:00 +2°C° 0 mm 1 m/S 688 mmHg 84%
    06:00 +3°C° 0 mm 1 m/S 688 mmHg 80%
    07:00 +4°C° 0 mm 1 m/S 688 mmHg 77%
    08:00 +6°C° 0 mm 1 m/S 688 mmHg 69%
    09:00 +9°C° 0 mm 1 m/S 688 mmHg 60%
    10:00 +12°C° 0 mm 2 m/S 688 mmHg 52%
    11:00 +13°C° 0 mm 2 m/S 688 mmHg 50%
    12:00 +14°C° 0 mm 2 m/S 687 mmHg 48%
    13:00 +15°C° 0 mm 2 m/S 687 mmHg 45%
    14:00 +15°C° 0 mm 2 m/S 686 mmHg 48%
    15:00 +14°C° 0 mm 2 m/S 686 mmHg 52%
    16:00 +14°C° 0 mm 2 m/S 685 mmHg 55%
    17:00 +12°C° 0 mm 2 m/S 685 mmHg 64%
    18:00 +9°C° 0 mm 1 m/S 685 mmHg 73%
    19:00 +7°C° 0 mm 1 m/S 685 mmHg 83%
    20:00 +6°C° 0 mm 1 m/S 685 mmHg 85%
    21:00 +6°C° 0 mm 1 m/S 685 mmHg 87%
    22:00 +4°C° 0 mm 0 m/S 685 mmHg 89%
    23:00 +4°C° 0 mm 0 m/S 685 mmHg 89%

    24 September, Montag

    Zeit Temperatur Niederschläge Wind Luftdruck Luftfeuchtigkeit
    00:00 +4°C° 0 mm 1 m/S 684 mmHg 90%
    01:00 +4°C° 0 mm 1 m/S 684 mmHg 91%
    02:00 +3°C° 0 mm 1 m/S 684 mmHg 91%
    03:00 +3°C° 0 mm 1 m/S 684 mmHg 91%
    04:00 +3°C° 0 mm 1 m/S 684 mmHg 91%
    05:00 +4°C° 0 mm 1 m/S 684 mmHg 88%
    06:00 +4°C° 0 mm 1 m/S 684 mmHg 84%
    07:00 +5°C° 0 mm 1 m/S 684 mmHg 81%
    08:00 +8°C° 0 mm 1 m/S 684 mmHg 72%
    09:00 +11°C° 0 mm 1 m/S 685 mmHg 63%
    10:00 +14°C° 0 mm 1 m/S 685 mmHg 53%
    11:00 +15°C° 0 mm 1 m/S 684 mmHg 51%
    12:00 +16°C° 0 mm 1 m/S 684 mmHg 48%
    13:00 +17°C° 0 mm 2 m/S 684 mmHg 46%
    14:00 +17°C° 0 mm 2 m/S 684 mmHg 49%
    15:00 +16°C° 0 mm 2 m/S 683 mmHg 53%
    16:00 +16°C° 0 mm 2 m/S 683 mmHg 56%
    17:00 +14°C° 0 mm 1 m/S 683 mmHg 64%
    18:00 +12°C° 0 mm 1 m/S 683 mmHg 73%
    19:00 +9°C° 0 mm 1 m/S 682 mmHg 81%
    20:00 +9°C° 0 mm 1 m/S 682 mmHg 83%
    21:00 +8°C° 0 mm 1 m/S 682 mmHg 85%
    22:00 +6°C° 0 mm 0 m/S 682 mmHg 88%
    23:00 +6°C° 0 mm 0 m/S 682 mmHg 88%

    25 September, Dienstag

    Zeit Temperatur Niederschläge Wind Luftdruck Luftfeuchtigkeit
    00:00 +5°C° 0 mm 0 m/S 681 mmHg 89%
    01:00 +5°C° 0 mm 0 m/S 681 mmHg 89%
    02:00 +5°C° 0 mm 0 m/S 681 mmHg 89%
    03:00 +5°C° 0 mm 0 m/S 681 mmHg 89%
    04:00 +6°C° 0 mm 1 m/S 680 mmHg 89%
    05:00 +5°C° 0 mm 0 m/S 680 mmHg 87%
    06:00 +6°C° 0 mm 0 m/S 680 mmHg 85%
    07:00 +6°C° 0 mm 0 m/S 680 mmHg 83%
    08:00 +9°C° 0 mm 1 m/S 680 mmHg 78%
    09:00 +10°C° 0 mm 1 m/S 680 mmHg 72%
    10:00 +12°C° 0 mm 1 m/S 680 mmHg 66%
    11:00 +12°C° 0.1 mm 1 m/S 680 mmHg 67%
    12:00 +13°C° 0.1 mm 1 m/S 679 mmHg 68%
    13:00 +13°C° 0.1 mm 1 m/S 679 mmHg 69%
    14:00 +13°C° 0.2 mm 1 m/S 679 mmHg 73%
    15:00 +12°C° 0.2 mm 1 m/S 678 mmHg 76%
    16:00 +12°C° 0.2 mm 1 m/S 678 mmHg 79%
    17:00 +11°C° 0.2 mm 1 m/S 678 mmHg 84%
    18:00 +9°C° 0.2 mm 1 m/S 678 mmHg 90%
    19:00 +7°C° 0.2 mm 0 m/S 678 mmHg 95%
    20:00 +8°C° 0.4 mm 1 m/S 678 mmHg 95%
    21:00 +8°C° 0.4 mm 1 m/S 678 mmHg 95%
    22:00 +8°C° 0.4 mm 1 m/S 678 mmHg 95%
    23:00 +8°C° 1 mm 1 m/S 678 mmHg 95%

    26 September, Mittwoch

    Zeit Temperatur Niederschläge Wind Luftdruck Luftfeuchtigkeit
    00:00 +8°C° 1 mm 1 m/S 678 mmHg 95%
    01:00 +8°C° 1 mm 1 m/S 678 mmHg 95%
    02:00 +8°C° 0.2 mm 1 m/S 678 mmHg 95%
    03:00 +7°C° 0.2 mm 1 m/S 679 mmHg 95%
    04:00 +7°C° 0.2 mm 1 m/S 679 mmHg 95%
    05:00 +7°C° 0 mm 1 m/S 679 mmHg 94%
    06:00 +7°C° 0 mm 1 m/S 680 mmHg 93%
    07:00 +7°C° 0 mm 1 m/S 680 mmHg 92%
    08:00 +9°C° 0 mm 1 m/S 680 mmHg 84%
    09:00 +11°C° 0 mm 1 m/S 680 mmHg 76%
    10:00 +13°C° 0 mm 1 m/S 680 mmHg 68%
    11:00 +14°C° 0.1 mm 1 m/S 680 mmHg 63%
    12:00 +15°C° 0.1 mm 1 m/S 680 mmHg 59%
    13:00 +15°C° 0.1 mm 1 m/S 680 mmHg 54%
    14:00 +15°C° 0.4 mm 1 m/S 680 mmHg 58%
    15:00 +14°C° 0.4 mm 1 m/S 680 mmHg 62%
    16:00 +13°C° 0.4 mm 2 m/S 679 mmHg 66%
    17:00 +12°C° 1 mm 2 m/S 680 mmHg 74%
    18:00 +9°C° 1 mm 2 m/S 680 mmHg 81%
    19:00 +7°C° 1 mm 2 m/S 680 mmHg 89%
    20:00 +7°C° 2.1 mm 3 m/S 680 mmHg 88%
    21:00 +5°C° 2.1 mm 4 m/S 680 mmHg 88%
    22:00 +4°C° 2.1 mm 4 m/S 681 mmHg 88%
    23:00 +3°C° 1.5 mm 4 m/S 681 mmHg 88%
    Mehr zeigen